Precipitable_Water
0.92 0.86 0.89 0.88 0.92 0.90 0.84 0.83 0.82 0.82 0.77 0.76 0.75 0.77 0.77 0.77 0.75 0.73 0.72 0.69 0.69 0.68 0.67 0.67 0.69 0.70 0.68 0.68 0.67 0.66 0.65 0.66 0.65 0.63 0.61 0.60 0.61 0.60 0.60 0.57 0.55 0.55 0.56 0.56 0.55 0.54 0.54 0.54 0.55 0.55 0.57 0.54 0.54 0.56 0.58 0.57 0.57 0.56 0.56 0.53 0.50 0.50 0.48 0.46 0.42 0.41 0.45 0.49 0.47 0.44 0.42 0.39 0.35 0.36 0.34 0.35 0.35 0.38 0.39 0.39 0.39 0.39 0.39 0.41 0.43
0.82 0.86 0.91 0.86 0.90 0.89 0.85 0.86 0.85 0.83 0.79 0.79 0.78 0.79 0.80 0.82 0.80 0.79 0.75 0.74 0.76 0.75 0.74 0.74 0.73 0.71 0.70 0.70 0.71 0.71 0.71 0.71 0.72 0.71 0.68 0.68 0.69 0.69 0.66 0.65 0.63 0.61 0.60 0.59 0.58 0.58 0.56 0.54 0.54 0.55 0.56 0.54 0.52 0.52 0.56 0.59 0.61 0.60 0.61 0.60 0.57 0.52 0.51 0.45 0.41 0.40 0.41 0.47 0.47 0.50 0.48 0.47 0.39 0.39 0.35 0.35 0.35 0.36 0.35 0.36 0.37 0.37 0.37 0.37 0.38
0.88 0.93 0.89 0.86 0.83 0.83 0.84 0.85 0.85 0.84 0.83 0.82 0.81 0.82 0.84 0.86 0.86 0.82 0.79 0.79 0.81 0.80 0.80 0.81 0.80 0.77 0.76 0.76 0.76 0.75 0.75 0.74 0.76 0.75 0.74 0.72 0.71 0.72 0.71 0.69 0.68 0.68 0.67 0.66 0.64 0.65 0.62 0.59 0.56 0.56 0.56 0.54 0.53 0.53 0.56 0.57 0.60 0.60 0.61 0.62 0.61 0.60 0.57 0.53 0.47 0.42 0.39 0.40 0.46 0.45 0.46 0.46 0.45 0.43 0.42 0.42 0.40 0.38 0.35 0.34 0.35 0.36 0.37 0.38 0.38
0.92 0.93 0.87 0.84 0.81 0.79 0.79 0.82 0.84 0.84 0.81 0.85 0.86 0.88 0.90 0.97 0.94 0.86 0.84 0.83 0.81 0.82 0.82 0.83 0.84 0.84 0.82 0.82 0.82 0.81 0.79 0.80 0.80 0.80 0.79 0.77 0.74 0.73 0.74 0.71 0.71 0.72 0.72 0.71 0.70 0.69 0.66 0.62 0.60 0.59 0.58 0.54 0.53 0.52 0.52 0.54 0.56 0.58 0.59 0.61 0.61 0.59 0.58 0.55 0.51 0.47 0.45 0.40 0.40 0.40 0.44 0.43 0.43 0.44 0.46 0.47 0.45 0.43 0.41 0.39 0.38 0.37 0.37 0.39 0.39
0.93 0.86 0.79 0.79 0.82 0.84 0.85 0.84 0.83 0.85 0.85 0.90 0.87 0.90 0.91 0.94 1.00 0.94 0.90 0.86 0.85 0.84 0.86 0.85 0.84 0.85 0.85 0.84 0.85 0.85 0.85 0.85 0.83 0.82 0.82 0.82 0.81 0.78 0.75 0.74 0.74 0.74 0.73 0.71 0.69 0.69 0.68 0.65 0.63 0.63 0.62 0.60 0.58 0.56 0.55 0.54 0.56 0.58 0.58 0.59 0.60 0.60 0.59 0.56 0.53 0.50 0.45 0.41 0.41 0.40 0.38 0.37 0.39 0.40 0.42 0.42 0.44 0.45 0.44 0.42 0.42 0.41 0.39 0.40 0.39
0.88 0.75 0.74 0.79 0.79 0.79 0.80 0.83 0.85 0.88 0.90 0.95 1.02 1.01 1.05 1.01 0.98 0.97 0.97 0.93 0.91 0.90 0.88 0.87 0.86 0.85 0.85 0.85 0.87 0.88 0.88 0.87 0.85 0.83 0.82 0.83 0.84 0.84 0.78 0.74 0.76 0.75 0.73 0.72 0.71 0.70 0.69 0.68 0.66 0.66 0.67 0.66 0.65 0.63 0.61 0.59 0.59 0.58 0.58 0.59 0.59 0.58 0.56 0.55 0.53 0.49 0.44 0.41 0.38 0.38 0.36 0.32 0.31 0.33 0.36 0.39 0.39 0.40 0.42 0.43 0.43 0.43 0.43 0.41 0.41
0.78 0.77 0.82 0.79 0.77 0.81 0.84 0.89 0.88 0.85 0.87 0.89 0.94 1.03 1.06 1.09 1.10 1.01 0.98 1.04 1.03 1.00 0.97 0.92 0.92 0.88 0.86 0.86 0.85 0.85 0.85 0.86 0.86 0.85 0.83 0.82 0.84 0.85 0.84 0.77 0.75 0.75 0.75 0.75 0.74 0.71 0.69 0.69 0.67 0.67 0.67 0.67 0.66 0.64 0.63 0.61 0.60 0.58 0.57 0.56 0.56 0.55 0.53 0.51 0.49 0.46 0.44 0.40 0.38 0.37 0.36 0.36 0.33 0.29 0.32 0.36 0.36 0.37 0.38 0.39 0.40 0.44 0.44 0.42 0.40
0.88 0.85 0.84 0.82 0.82 0.85 0.88 0.88 0.87 0.89 0.96 0.99 0.98 0.98 1.05 1.04 1.06 1.05 0.95 1.04 1.02 1.02 1.06 1.05 1.04 0.95 0.90 0.86 0.84 0.83 0.83 0.84 0.85 0.83 0.84 0.85 0.84 0.85 0.85 0.81 0.76 0.75 0.75 0.76 0.76 0.74 0.72 0.71 0.69 0.69 0.68 0.66 0.63 0.61 0.60 0.57 0.57 0.55 0.55 0.55 0.54 0.53 0.51 0.49 0.47 0.44 0.42 0.40 0.38 0.38 0.38 0.36 0.35 0.33 0.32 0.31 0.29 0.30 0.34 0.36 0.35 0.37 0.40 0.42 0.41
0.82 0.84 0.90 0.93 0.94 0.94 0.95 0.96 0.95 0.91 0.91 0.99 1.07 1.07 1.01 1.04 1.10 1.10 1.09 1.05 1.00 0.97 0.94 0.92 0.92 0.96 0.95 0.89 0.84 0.83 0.81 0.80 0.78 0.76 0.75 0.78 0.81 0.80 0.82 0.82 0.79 0.76 0.76 0.77 0.78 0.77 0.75 0.74 0.73 0.71 0.71 0.68 0.65 0.62 0.60 0.59 0.57 0.56 0.57 0.57 0.56 0.54 0.53 0.50 0.47 0.45 0.44 0.41 0.38 0.38 0.37 0.36 0.34 0.32 0.31 0.30 0.29 0.30 0.34 0.35 0.34 0.36 0.38 0.38 0.40
0.78 0.77 0.75 0.83 0.88 0.85 0.83 0.84 0.90 1.00 0.95 0.89 0.89 0.97 0.95 0.89 0.91 0.96 1.00 0.98 0.94 0.93 0.91 0.90 0.90 0.86 0.83 0.85 0.84 0.82 0.80 0.78 0.76 0.75 0.77 0.78 0.78 0.77 0.77 0.79 0.81 0.79 0.76 0.75 0.76 0.77 0.77 0.77 0.76 0.75 0.73 0.70 0.67 0.63 0.59 0.57 0.56 0.56 0.56 0.56 0.58 0.57 0.54 0.50 0.47 0.44 0.42 0.40 0.39 0.38 0.37 0.37 0.37 0.36 0.33 0.32 0.34 0.35 0.32 0.32 0.30 0.33 0.35 0.35 0.36
0.72 0.70 0.69 0.72 0.76 0.80 0.80 0.80 0.83 0.86 0.87 0.84 0.88 0.92 0.92 0.90 0.89 0.83 0.82 0.84 0.85 0.91 0.89 0.85 0.83 0.80 0.76 0.75 0.76 0.78 0.80 0.81 0.80 0.80 0.80 0.82 0.83 0.82 0.81 0.80 0.82 0.81 0.78 0.76 0.75 0.77 0.78 0.78 0.77 0.75 0.73 0.71 0.69 0.66 0.62 0.59 0.57 0.54 0.53 0.55 0.57 0.56 0.54 0.50 0.47 0.44 0.41 0.40 0.40 0.39 0.38 0.38 0.39 0.38 0.35 0.34 0.34 0.33 0.32 0.31 0.31 0.30 0.29 0.29 0.29
0.70 0.72 0.71 0.70 0.70 0.73 0.74 0.77 0.82 0.85 0.81 0.77 0.77 0.78 0.81 0.78 0.77 0.77 0.77 0.77 0.82 0.81 0.74 0.69 0.68 0.69 0.71 0.71 0.72 0.74 0.76 0.78 0.77 0.77 0.77 0.78 0.79 0.80 0.80 0.79 0.79 0.78 0.77 0.76 0.79 0.81 0.80 0.79 0.77 0.75 0.75 0.74 0.72 0.70 0.64 0.61 0.59 0.54 0.52 0.51 0.52 0.54 0.56 0.53 0.49 0.45 0.43 0.40 0.39 0.38 0.38 0.37 0.38 0.38 0.37 0.37 0.35 0.34 0.33 0.32 0.30 0.29 0.28 0.27 0.28
0.59 0.62 0.65 0.67 0.69 0.69 0.68 0.69 0.70 0.71 0.72 0.70 0.68 0.66 0.65 0.67 0.66 0.64 0.63 0.63 0.62 0.59 0.57 0.58 0.61 0.67 0.70 0.70 0.71 0.74 0.75 0.74 0.74 0.77 0.79 0.80 0.82 0.83 0.82 0.80 0.77 0.77 0.78 0.81 0.80 0.79 0.78 0.77 0.74 0.75 0.73 0.76 0.76 0.72 0.68 0.64 0.61 0.56 0.53 0.52 0.52 0.54 0.55 0.55 0.54 0.50 0.47 0.44 0.41 0.40 0.39 0.38 0.37 0.38 0.39 0.38 0.38 0.34 0.33 0.31 0.31 0.31 0.30 0.28 0.28
0.48 0.50 0.54 0.55 0.53 0.55 0.60 0.61 0.61 0.62 0.64 0.61 0.59 0.57 0.57 0.56 0.57 0.58 0.58 0.56 0.55 0.58 0.63 0.65 0.66 0.66 0.67 0.66 0.66 0.67 0.69 0.70 0.70 0.69 0.70 0.71 0.72 0.73 0.75 0.75 0.74 0.77 0.81 0.82 0.82 0.82 0.80 0.76 0.74 0.72 0.75 0.75 0.72 0.68 0.64 0.62 0.60 0.57 0.56 0.54 0.53 0.54 0.55 0.55 0.53 0.51 0.50 0.47 0.44 0.40 0.41 0.41 0.39 0.40 0.41 0.42 0.38 0.35 0.33 0.30 0.31 0.29 0.28 0.28 0.30
0.43 0.44 0.45 0.46 0.48 0.49 0.51 0.49 0.49 0.50 0.50 0.50 0.50 0.50 0.50 0.49 0.49 0.52 0.56 0.57 0.55 0.53 0.53 0.53 0.56 0.59 0.59 0.58 0.55 0.53 0.54 0.54 0.52 0.50 0.48 0.49 0.52 0.56 0.60 0.64 0.66 0.70 0.75 0.78 0.82 0.82 0.80 0.78 0.76 0.73 0.73 0.74 0.72 0.69 0.67 0.64 0.61 0.59 0.58 0.56 0.54 0.52 0.53 0.54 0.53 0.51 0.49 0.47 0.45 0.43 0.43 0.44 0.43 0.42 0.42 0.42 0.40 0.39 0.37 0.34 0.33 0.32 0.31 0.32 0.30
0.46 0.45 0.44 0.45 0.47 0.49 0.49 0.49 0.49 0.49 0.48 0.48 0.48 0.47 0.45 0.46 0.45 0.45 0.45 0.49 0.52 0.53 0.53 0.52 0.50 0.50 0.52 0.52 0.49 0.47 0.49 0.49 0.49 0.47 0.45 0.44 0.46 0.50 0.54 0.58 0.61 0.62 0.66 0.71 0.77 0.80 0.82 0.77 0.75 0.77 0.76 0.74 0.73 0.69 0.65 0.65 0.64 0.62 0.59 0.55 0.53 0.53 0.54 0.57 0.56 0.54 0.52 0.50 0.48 0.46 0.45 0.45 0.44 0.43 0.42 0.41 0.40 0.39 0.38 0.37 0.35 0.32 0.29 0.27 0.25
0.47 0.46 0.45 0.45 0.47 0.48 0.49 0.49 0.49 0.48 0.47 0.46 0.44 0.42 0.40 0.39 0.39 0.40 0.38 0.39 0.40 0.41 0.43 0.43 0.45 0.45 0.46 0.47 0.47 0.48 0.49 0.49 0.48 0.45 0.43 0.42 0.42 0.44 0.46 0.51 0.56 0.59 0.60 0.63 0.65 0.66 0.68 0.69 0.71 0.70 0.67 0.66 0.66 0.66 0.66 0.65 0.62 0.59 0.56 0.53 0.50 0.49 0.50 0.53 0.55 0.54 0.52 0.50 0.48 0.47 0.45 0.44 0.43 0.42 0.42 0.41 0.39 0.38 0.36 0.32 0.30 0.31 0.27 0.24 0.24
0.51 0.50 0.49 0.48 0.48 0.50 0.49 0.49 0.48 0.48 0.47 0.45 0.43 0.43 0.43 0.42 0.41 0.41 0.38 0.40 0.40 0.42 0.45 0.48 0.49 0.49 0.48 0.49 0.50 0.49 0.50 0.51 0.50 0.48 0.47 0.46 0.46 0.45 0.45 0.45 0.46 0.48 0.51 0.54 0.55 0.57 0.60 0.64 0.65 0.66 0.66 0.64 0.63 0.61 0.60 0.59 0.55 0.53 0.52 0.50 0.48 0.48 0.50 0.53 0.52 0.51 0.49 0.47 0.46 0.44 0.43 0.41 0.40 0.39 0.39 0.38 0.37 0.36 0.32 0.28 0.30 0.30 0.27 0.26 0.23
0.52 0.53 0.53 0.52 0.51 0.52 0.52 0.51 0.50 0.49 0.48 0.47 0.47 0.46 0.44 0.43 0.41 0.42 0.41 0.41 0.42 0.44 0.46 0.48 0.51 0.53 0.53 0.53 0.53 0.52 0.51 0.51 0.51 0.51 0.49 0.48 0.48 0.48 0.48 0.47 0.46 0.46 0.48 0.51 0.53 0.54 0.55 0.59 0.61 0.61 0.59 0.57 0.57 0.57 0.57 0.54 0.50 0.49 0.50 0.48 0.47 0.49 0.51 0.51 0.48 0.46 0.44 0.42 0.40 0.39 0.38 0.37 0.37 0.36 0.36 0.35 0.35 0.34 0.33 0.32 0.32 0.30 0.28 0.28 0.27
0.55 0.54 0.55 0.54 0.54 0.57 0.58 0.57 0.55 0.53 0.52 0.52 0.52 0.50 0.48 0.45 0.44 0.43 0.42 0.41 0.41 0.42 0.44 0.47 0.49 0.53 0.55 0.54 0.53 0.53 0.51 0.51 0.52 0.52 0.52 0.51 0.49 0.47 0.46 0.45 0.44 0.45 0.47 0.48 0.50 0.53 0.55 0.56 0.57 0.56 0.55 0.55 0.54 0.53 0.52 0.50 0.49 0.50 0.51 0.49 0.48 0.47 0.49 0.48 0.46 0.44 0.41 0.39 0.38 0.37 0.36 0.37 0.37 0.36 0.36 0.35 0.35 0.36 0.35 0.34 0.34 0.33 0.30 0.30 0.30
0.58 0.56 0.55 0.54 0.54 0.54 0.54 0.54 0.55 0.56 0.55 0.54 0.53 0.51 0.50 0.48 0.47 0.45 0.44 0.43 0.41 0.41 0.42 0.45 0.49 0.52 0.55 0.55 0.54 0.52 0.52 0.51 0.51 0.51 0.51 0.50 0.50 0.48 0.46 0.45 0.44 0.44 0.45 0.45 0.46 0.46 0.47 0.48 0.49 0.49 0.48 0.47 0.48 0.48 0.48 0.48 0.49 0.49 0.48 0.47 0.46 0.46 0.46 0.44 0.44 0.43 0.40 0.39 0.37 0.36 0.36 0.36 0.35 0.35 0.35 0.35 0.35 0.35 0.35 0.35 0.35 0.35 0.33 0.32 0.31
0.60 0.59 0.58 0.56 0.55 0.55 0.54 0.54 0.54 0.53 0.53 0.52 0.50 0.51 0.52 0.52 0.52 0.50 0.49 0.46 0.45 0.45 0.45 0.45 0.46 0.48 0.51 0.53 0.53 0.53 0.53 0.53 0.52 0.52 0.52 0.51 0.51 0.50 0.47 0.46 0.45 0.45 0.44 0.44 0.43 0.43 0.43 0.42 0.42 0.43 0.44 0.44 0.45 0.46 0.47 0.48 0.48 0.48 0.47 0.47 0.47 0.46 0.45 0.44 0.42 0.41 0.39 0.37 0.37 0.35 0.35 0.34 0.34 0.34 0.34 0.34 0.35 0.36 0.36 0.36 0.36 0.37 0.36 0.36 0.35
0.59 0.59 0.58 0.58 0.57 0.56 0.56 0.55 0.54 0.53 0.51 0.50 0.48 0.47 0.48 0.53 0.55 0.54 0.51 0.49 0.47 0.45 0.45 0.45 0.44 0.45 0.47 0.49 0.52 0.53 0.53 0.53 0.52 0.52 0.53 0.53 0.52 0.49 0.48 0.47 0.46 0.45 0.43 0.41 0.41 0.41 0.42 0.43 0.44 0.45 0.46 0.47 0.47 0.47 0.46 0.47 0.48 0.48 0.47 0.46 0.45 0.45 0.45 0.43 0.40 0.38 0.37 0.36 0.35 0.33 0.33 0.32 0.31 0.31 0.32 0.33 0.35 0.36 0.37 0.37 0.38 0.38 0.38 0.39 0.39
0.54 0.54 0.55 0.56 0.59 0.58 0.57 0.56 0.56 0.54 0.52 0.51 0.48 0.45 0.44 0.45 0.47 0.47 0.47 0.46 0.45 0.44 0.43 0.42 0.42 0.43 0.45 0.49 0.52 0.53 0.53 0.52 0.52 0.52 0.52 0.50 0.47 0.44 0.44 0.45 0.45 0.45 0.45 0.43 0.43 0.42 0.42 0.44 0.45 0.46 0.47 0.47 0.47 0.47 0.47 0.46 0.44 0.43 0.43 0.44 0.46 0.46 0.42 0.38 0.38 0.37 0.36 0.34 0.32 0.31 0.30 0.31 0.31 0.31 0.33 0.35 0.36 0.37 0.38 0.38 0.38 0.39 0.39 0.39 0.40
0.50 0.51 0.53 0.54 0.55 0.55 0.55 0.54 0.53 0.52 0.51 0.49 0.46 0.45 0.44 0.45 0.44 0.46 0.47 0.47 0.45 0.43 0.41 0.41 0.41 0.43 0.44 0.46 0.48 0.49 0.49 0.49 0.48 0.48 0.48 0.47 0.46 0.45 0.45 0.45 0.46 0.45 0.43 0.43 0.44 0.45 0.45 0.46 0.45 0.45 0.45 0.44 0.42 0.42 0.42 0.42 0.44 0.45 0.45 0.43 0.40 0.39 0.38 0.37 0.36 0.35 0.33 0.31 0.30 0.30 0.31 0.32 0.33 0.34 0.36 0.37 0.38 0.38 0.37 0.38 0.39 0.40 0.41 0.41 0.41
0.47 0.48 0.48 0.49 0.50 0.51 0.51 0.51 0.51 0.50 0.50 0.49 0.48 0.48 0.47 0.46 0.44 0.43 0.43 0.43 0.43 0.42 0.42 0.43 0.43 0.45 0.46 0.47 0.47 0.46 0.46 0.45 0.45 0.46 0.47 0.46 0.46 0.46 0.46 0.45 0.43 0.41 0.39 0.40 0.42 0.43 0.44 0.44 0.42 0.40 0.39 0.39 0.41 0.43 0.43 0.41 0.40 0.39 0.39 0.40 0.39 0.39 0.38 0.36 0.34 0.32 0.30 0.31 0.31 0.31 0.33 0.34 0.35 0.36 0.37 0.37 0.36 0.36 0.37 0.37 0.37 0.37 0.38 0.38 0.37
0.50 0.49 0.48 0.48 0.48 0.48 0.47 0.47 0.47 0.48 0.48 0.48 0.48 0.47 0.47 0.45 0.44 0.43 0.43 0.43 0.44 0.44 0.44 0.43 0.44 0.46 0.47 0.49 0.49 0.48 0.46 0.45 0.44 0.43 0.43 0.42 0.42 0.43 0.43 0.41 0.40 0.39 0.38 0.38 0.37 0.37 0.37 0.37 0.37 0.40 0.42 0.42 0.41 0.40 0.39 0.39 0.39 0.40 0.40 0.40 0.39 0.37 0.35 0.34 0.33 0.32 0.33 0.33 0.33 0.33 0.34 0.35 0.36 0.36 0.35 0.35 0.35 0.35 0.37 0.36 0.36 0.36 0.37 0.37 0.35
0.47 0.48 0.48 0.49 0.49 0.49 0.48 0.47 0.46 0.46 0.47 0.46 0.46 0.45 0.44 0.44 0.42 0.41 0.41 0.43 0.43 0.44 0.45 0.46 0.47 0.49 0.51 0.51 0.49 0.47 0.45 0.43 0.43 0.41 0.41 0.41 0.40 0.40 0.39 0.39 0.38 0.36 0.36 0.36 0.37 0.37 0.37 0.39 0.39 0.40 0.40 0.39 0.38 0.38 0.38 0.38 0.38 0.38 0.37 0.36 0.34 0.34 0.35 0.36 0.36 0.36 0.35 0.35 0.34 0.34 0.34 0.35 0.34 0.35 0.36 0.36 0.36 0.36 0.37 0.37 0.36 0.36 0.37 0.37 0.34
0.45 0.46 0.47 0.47 0.47 0.48 0.48 0.47 0.46 0.45 0.45 0.44 0.44 0.45 0.44 0.44 0.43 0.43 0.46 0.47 0.46 0.45 0.45 0.47 0.48 0.48 0.47 0.46 0.44 0.41 0.40 0.40 0.41 0.43 0.41 0.39 0.39 0.38 0.37 0.36 0.38 0.38 0.37 0.37 0.37 0.37 0.37 0.37 0.36 0.36 0.35 0.33 0.33 0.34 0.35 0.36 0.34 0.33 0.32 0.32 0.33 0.34 0.35 0.35 0.34 0.34 0.35 0.35 0.34 0.34 0.34 0.35 0.35 0.36 0.36 0.36 0.36 0.38 0.39 0.38 0.39 0.38 0.38 0.38 0.35
0.41 0.42 0.44 0.45 0.46 0.46 0.46 0.45 0.45 0.45 0.44 0.43 0.42 0.43 0.46 0.47 0.47 0.45 0.45 0.50 0.52 0.53 0.51 0.47 0.48 0.48 0.47 0.46 0.45 0.43 0.42 0.43 0.42 0.41 0.40 0.39 0.39 0.38 0.38 0.39 0.39 0.37 0.37 0.38 0.38 0.36 0.35 0.34 0.34 0.33 0.33 0.33 0.34 0.33 0.31 0.30 0.29 0.30 0.31 0.33 0.35 0.35 0.36 0.36 0.36 0.35 0.36 0.35 0.35 0.34 0.34 0.35 0.35 0.36 0.37 0.37 0.38 0.39 0.40 0.40 0.39 0.40 0.38 0.37 0.36
0.39 0.39 0.40 0.42 0.44 0.45 0.46 0.46 0.47 0.45 0.44 0.43 0.42 0.42 0.43 0.46 0.47 0.48 0.48 0.50 0.52 0.52 0.51 0.50 0.50 0.50 0.51 0.50 0.50 0.49 0.46 0.42 0.42 0.41 0.40 0.39 0.39 0.39 0.38 0.36 0.35 0.37 0.38 0.38 0.36 0.35 0.34 0.34 0.34 0.35 0.36 0.34 0.31 0.29 0.29 0.29 0.30 0.32 0.33 0.35 0.37 0.37 0.37 0.36 0.36 0.36 0.36 0.35 0.35 0.36 0.36 0.36 0.36 0.37 0.37 0.38 0.38 0.39 0.41 0.43 0.43 0.42 0.41 0.41 0.40
0.39 0.40 0.40 0.41 0.43 0.45 0.47 0.47 0.46 0.44 0.43 0.43 0.43 0.43 0.42 0.41 0.43 0.47 0.48 0.49 0.49 0.48 0.48 0.48 0.48 0.49 0.50 0.50 0.48 0.46 0.43 0.42 0.42 0.40 0.39 0.38 0.36 0.36 0.37 0.38 0.40 0.40 0.40 0.40 0.38 0.37 0.37 0.36 0.35 0.34 0.32 0.29 0.29 0.30 0.31 0.32 0.34 0.34 0.34 0.34 0.35 0.36 0.36 0.35 0.36 0.36 0.36 0.36 0.36 0.37 0.37 0.38 0.38 0.39 0.40 0.40 0.41 0.42 0.43 0.44 0.45 0.45 0.46 0.46 0.46
0.38 0.40 0.41 0.42 0.42 0.42 0.43 0.45 0.45 0.43 0.41 0.40 0.41 0.42 0.41 0.40 0.38 0.39 0.44 0.46 0.46 0.46 0.46 0.47 0.48 0.49 0.51 0.51 0.49 0.46 0.45 0.45 0.43 0.40 0.38 0.38 0.39 0.40 0.41 0.41 0.41 0.42 0.42 0.41 0.38 0.37 0.37 0.35 0.32 0.30 0.29 0.29 0.30 0.31 0.33 0.34 0.34 0.34 0.34 0.34 0.34 0.35 0.35 0.36 0.37 0.37 0.37 0.38 0.39 0.39 0.40 0.41 0.43 0.43 0.45 0.46 0.46 0.46 0.47 0.48 0.49 0.49 0.49 0.48 0.48
0.36 0.37 0.38 0.39 0.39 0.39 0.39 0.40 0.42 0.44 0.44 0.42 0.41 0.39 0.38 0.37 0.36 0.36 0.36 0.37 0.40 0.43 0.46 0.46 0.47 0.47 0.46 0.46 0.44 0.43 0.44 0.43 0.40 0.38 0.39 0.40 0.41 0.42 0.42 0.43 0.45 0.45 0.43 0.40 0.39 0.35 0.33 0.30 0.30 0.30 0.30 0.30 0.31 0.33 0.33 0.33 0.34 0.34 0.34 0.34 0.34 0.35 0.36 0.38 0.38 0.39 0.40 0.42 0.43 0.44 0.45 0.47 0.48 0.48 0.48 0.49 0.50 0.50 0.50 0.50 0.51 0.50 0.49 0.49 0.48
0.35 0.36 0.37 0.38 0.40 0.39 0.37 0.37 0.38 0.39 0.42 0.43 0.42 0.40 0.36 0.36 0.36 0.36 0.35 0.33 0.34 0.35 0.38 0.41 0.43 0.42 0.41 0.41 0.43 0.45 0.43 0.41 0.40 0.40 0.41 0.43 0.44 0.46 0.47 0.45 0.43 0.42 0.42 0.40 0.35 0.31 0.30 0.30 0.30 0.30 0.30 0.31 0.32 0.33 0.33 0.33 0.33 0.33 0.33 0.33 0.35 0.36 0.38 0.40 0.42 0.44 0.45 0.46 0.47 0.48 0.49 0.50 0.51 0.51 0.51 0.50 0.50 0.50 0.50 0.51 0.51 0.51 0.50 0.50 0.49
0.32 0.33 0.35 0.37 0.38 0.40 0.40 0.40 0.41 0.41 0.40 0.40 0.41 0.40 0.39 0.40 0.38 0.37 0.36 0.36 0.36 0.35 0.36 0.36 0.37 0.38 0.42 0.46 0.46 0.43 0.42 0.42 0.42 0.43 0.45 0.46 0.48 0.48 0.44 0.42 0.41 0.39 0.35 0.32 0.30 0.31 0.31 0.31 0.30 0.31 0.32 0.32 0.33 0.33 0.33 0.32 0.33 0.33 0.34 0.35 0.36 0.38 0.41 0.43 0.45 0.47 0.49 0.49 0.50 0.51 0.51 0.52 0.53 0.52 0.52 0.52 0.52 0.52 0.51 0.51 0.51 0.50 0.50 0.49 0.50
0.35 0.33 0.34 0.35 0.36 0.37 0.38 0.41 0.43 0.42 0.42 0.42 0.43 0.43 0.43 0.42 0.39 0.37 0.37 0.38 0.37 0.36 0.35 0.35 0.36 0.42 0.46 0.47 0.45 0.44 0.43 0.44 0.45 0.47 0.48 0.49 0.49 0.47 0.44 0.42 0.39 0.34 0.30 0.29 0.30 0.30 0.30 0.30 0.32 0.32 0.33 0.33 0.32 0.32 0.32 0.31 0.32 0.33 0.36 0.38 0.41 0.43 0.45 0.47 0.48 0.49 0.50 0.50 0.51 0.52 0.52 0.52 0.53 0.53 0.52 0.51 0.51 0.51 0.51 0.51 0.50 0.50 0.50 0.50 0.49
0.42 0.39 0.38 0.37 0.36 0.35 0.34 0.36 0.39 0.41 0.41 0.42 0.42 0.43 0.42 0.40 0.37 0.37 0.38 0.38 0.37 0.36 0.35 0.35 0.39 0.43 0.44 0.44 0.45 0.44 0.45 0.46 0.48 0.49 0.50 0.49 0.47 0.45 0.42 0.37 0.33 0.30 0.29 0.30 0.30 0.30 0.30 0.32 0.33 0.33 0.33 0.33 0.32 0.31 0.31 0.32 0.34 0.36 0.38 0.41 0.44 0.46 0.48 0.49 0.50 0.50 0.51 0.51 0.52 0.52 0.53 0.53 0.53 0.53 0.52 0.51 0.51 0.51 0.51 0.50 0.50 0.49 0.50 0.50 0.50
0.50 0.49 0.46 0.44 0.42 0.40 0.38 0.37 0.37 0.38 0.40 0.42 0.41 0.41 0.38 0.37 0.39 0.39 0.39 0.38 0.37 0.38 0.39 0.41 0.43 0.44 0.44 0.46 0.47 0.47 0.45 0.44 0.45 0.46 0.46 0.45 0.43 0.39 0.35 0.33 0.32 0.30 0.29 0.29 0.30 0.31 0.31 0.32 0.33 0.33 0.32 0.32 0.31 0.32 0.32 0.33 0.35 0.37 0.40 0.43 0.45 0.47 0.48 0.49 0.49 0.50 0.51 0.52 0.52 0.53 0.53 0.53 0.53 0.53 0.53 0.52 0.52 0.51 0.51 0.50 0.50 0.50 0.49 0.49 0.49
0.60 0.59 0.57 0.52 0.48 0.46 0.45 0.43 0.41 0.41 0.41 0.40 0.39 0.37 0.37 0.42 0.42 0.42 0.40 0.39 0.39 0.41 0.43 0.44 0.45 0.46 0.47 0.48 0.46 0.45 0.43 0.43 0.44 0.43 0.41 0.38 0.35 0.34 0.35 0.32 0.30 0.29 0.28 0.29 0.31 0.31 0.32 0.33 0.33 0.32 0.31 0.31 0.32 0.33 0.34 0.35 0.36 0.38 0.41 0.43 0.45 0.46 0.48 0.49 0.50 0.51 0.51 0.52 0.53 0.53 0.53 0.54 0.54 0.54 0.54 0.53 0.53 0.52 0.51 0.51 0.51 0.51 0.50 0.50 0.51
0.61 0.61 0.59 0.57 0.53 0.50 0.48 0.46 0.44 0.42 0.42 0.41 0.39 0.38 0.40 0.42 0.42 0.41 0.40 0.40 0.43 0.46 0.46 0.46 0.45 0.46 0.46 0.46 0.46 0.45 0.44 0.43 0.41 0.39 0.36 0.34 0.35 0.35 0.34 0.32 0.29 0.28 0.29 0.30 0.31 0.32 0.33 0.33 0.32 0.32 0.32 0.32 0.33 0.34 0.35 0.36 0.37 0.38 0.40 0.42 0.44 0.46 0.48 0.50 0.51 0.51 0.52 0.52 0.53 0.53 0.54 0.54 0.54 0.53 0.53 0.54 0.54 0.54 0.53 0.53 0.52 0.52 0.52 0.52 0.52
0.57 0.57 0.56 0.55 0.52 0.49 0.47 0.45 0.48 0.47 0.44 0.42 0.45 0.43 0.42 0.42 0.41 0.40 0.42 0.45 0.47 0.47 0.45 0.44 0.43 0.44 0.46 0.47 0.47 0.47 0.44 0.41 0.40 0.37 0.33 0.35 0.36 0.35 0.34 0.31 0.28 0.29 0.30 0.31 0.31 0.32 0.33 0.32 0.32 0.32 0.32 0.33 0.34 0.35 0.35 0.35 0.36 0.37 0.38 0.40 0.43 0.45 0.47 0.49 0.51 0.52 0.52 0.52 0.53 0.54 0.54 0.55 0.55 0.55 0.55 0.54 0.54 0.54 0.53 0.53 0.53 0.53 0.53 0.53 0.53
0.53 0.52 0.51 0.51 0.50 0.47 0.46 0.45 0.49 0.49 0.46 0.44 0.44 0.45 0.45 0.45 0.44 0.46 0.49 0.48 0.46 0.44 0.43 0.43 0.45 0.47 0.48 0.49 0.48 0.45 0.40 0.38 0.36 0.33 0.33 0.35 0.36 0.34 0.32 0.29 0.28 0.30 0.31 0.32 0.33 0.33 0.34 0.33 0.33 0.32 0.33 0.34 0.35 0.35 0.35 0.34 0.35 0.35 0.35 0.37 0.41 0.44 0.47 0.49 0.51 0.52 0.53 0.53 0.53 0.54 0.55 0.55 0.55 0.55 0.55 0.55 0.54 0.54 0.53 0.54 0.54 0.54 0.54 0.54 0.54
0.55 0.53 0.52 0.51 0.50 0.50 0.49 0.49 0.48 0.48 0.48 0.49 0.50 0.50 0.50 0.50 0.51 0.51 0.47 0.45 0.43 0.43 0.45 0.47 0.48 0.47 0.46 0.47 0.45 0.41 0.37 0.35 0.33 0.33 0.33 0.35 0.34 0.32 0.30 0.29 0.28 0.30 0.31 0.32 0.33 0.34 0.34 0.34 0.33 0.33 0.34 0.35 0.36 0.36 0.35 0.35 0.35 0.32 0.32 0.35 0.39 0.44 0.47 0.49 0.51 0.52 0.53 0.53 0.54 0.54 0.54 0.55 0.56 0.56 0.55 0.55 0.55 0.53 0.53 0.53 0.54 0.54 0.55 0.55 0.55
0.57 0.56 0.55 0.53 0.53 0.53 0.52 0.54 0.54 0.55 0.55 0.54 0.53 0.53 0.53 0.51 0.49 0.48 0.47 0.46 0.46 0.47 0.48 0.48 0.48 0.46 0.45 0.42 0.38 0.35 0.34 0.33 0.33 0.32 0.32 0.33 0.33 0.32 0.31 0.30 0.28 0.29 0.30 0.31 0.33 0.33 0.34 0.34 0.35 0.34 0.34 0.35 0.35 0.35 0.34 0.34 0.32 0.30 0.30 0.33 0.38 0.43 0.47 0.50 0.52 0.53 0.54 0.54 0.54 0.54 0.55 0.55 0.55 0.56 0.55 0.56 0.55 0.53 0.53 0.53 0.53 0.54 0.55 0.55 0.55
0.56 0.56 0.55 0.55 0.54 0.54 0.54 0.54 0.54 0.53 0.53 0.52 0.51 0.50 0.49 0.49 0.49 0.48 0.47 0.48 0.48 0.48 0.48 0.47 0.45 0.42 0.39 0.36 0.34 0.33 0.32 0.31 0.31 0.31 0.32 0.33 0.32 0.32 0.31 0.30 0.29 0.29 0.30 0.31 0.33 0.33 0.34 0.35 0.34 0.34 0.34 0.34 0.34 0.33 0.33 0.32 0.30 0.28 0.29 0.33 0.39 0.45 0.48 0.52 0.54 0.54 0.54 0.54 0.54 0.55 0.55 0.55 0.55 0.56 0.56 0.56 0.55 0.53 0.53 0.54 0.55 0.55 0.56 0.55 0.56
0.52 0.51 0.51 0.51 0.51 0.51 0.51 0.51 0.51 0.50 0.49 0.48 0.48 0.48 0.48 0.48 0.48 0.48 0.49 0.49 0.48 0.46 0.45 0.42 0.38 0.36 0.35 0.34 0.32 0.31 0.30 0.30 0.30 0.30 0.31 0.33 0.33 0.32 0.31 0.30 0.29 0.28 0.30 0.32 0.33 0.33 0.34 0.34 0.34 0.34 0.34 0.34 0.33 0.32 0.32 0.30 0.28 0.26 0.27 0.32 0.39 0.44 0.48 0.51 0.53 0.54 0.54 0.55 0.56 0.55 0.55 0.55 0.55 0.56 0.56 0.56 0.55 0.53 0.53 0.55 0.56 0.55 0.56 0.56 0.56
0.51 0.50 0.49 0.49 0.48 0.48 0.48 0.48 0.48 0.48 0.48 0.48 0.49 0.49 0.49 0.49 0.48 0.48 0.47 0.45 0.44 0.42 0.39 0.36 0.35 0.34 0.32 0.31 0.30 0.30 0.29 0.29 0.30 0.30 0.32 0.33 0.33 0.33 0.32 0.30 0.29 0.28 0.30 0.31 0.32 0.33 0.34 0.34 0.34 0.34 0.33 0.32 0.32 0.32 0.31 0.29 0.27 0.25 0.26 0.32 0.38 0.43 0.47 0.50 0.51 0.53 0.55 0.55 0.56 0.55 0.55 0.55 0.55 0.56 0.56 0.55 0.54 0.53 0.52 0.53 0.55 0.56 0.55 0.55 0.55
0.51 0.51 0.51 0.51 0.50 0.50 0.49 0.49 0.49 0.49 0.48 0.48 0.48 0.48 0.47 0.47 0.46 0.44 0.42 0.41 0.39 0.37 0.35 0.34 0.32 0.31 0.30 0.29 0.29 0.29 0.28 0.28 0.28 0.29 0.32 0.33 0.34 0.33 0.33 0.31 0.29 0.28 0.30 0.31 0.31 0.32 0.32 0.33 0.33 0.32 0.31 0.32 0.31 0.31 0.30 0.28 0.26 0.24 0.25 0.30 0.37 0.41 0.45 0.47 0.49 0.51 0.53 0.55 0.55 0.55 0.55 0.55 0.55 0.55 0.55 0.55 0.55 0.54 0.53 0.53 0.54 0.55 0.54 0.54 0.54
0.49 0.49 0.49 0.49 0.49 0.49 0.49 0.49 0.48 0.47 0.47 0.46 0.45 0.45 0.44 0.43 0.41 0.39 0.38 0.36 0.35 0.33 0.32 0.31 0.30 0.29 0.28 0.28 0.27 0.27 0.27 0.26 0.27 0.30 0.32 0.33 0.33 0.34 0.34 0.32 0.29 0.28 0.29 0.30 0.30 0.30 0.31 0.31 0.31 0.30 0.30 0.30 0.30 0.30 0.29 0.28 0.26 0.24 0.25 0.29 0.34 0.38 0.42 0.45 0.47 0.49 0.51 0.52 0.53 0.53 0.54 0.54 0.54 0.54 0.55 0.55 0.55 0.55 0.54 0.53 0.53 0.54 0.54 0.53 0.53
0.47 0.46 0.46 0.46 0.46 0.47 0.47 0.46 0.46 0.45 0.45 0.43 0.42 0.41 0.40 0.39 0.38 0.36 0.34 0.33 0.31 0.31 0.30 0.29 0.29 0.28 0.28 0.28 0.27 0.27 0.26 0.26 0.27 0.30 0.32 0.33 0.33 0.33 0.34 0.32 0.30 0.28 0.28 0.28 0.29 0.29 0.29 0.29 0.29 0.29 0.29 0.29 0.29 0.28 0.27 0.28 0.26 0.24 0.25 0.27 0.32 0.35 0.38 0.41 0.43 0.46 0.48 0.50 0.51 0.51 0.51 0.52 0.52 0.52 0.53 0.54 0.54 0.55 0.54 0.54 0.54 0.54 0.54 0.54 0.54
Wind_Speed
19 18 21 22 21 20 18 17 19 20 19 18 18 18 17 16 15 14 13 12 12 11 11 10 10 9 8 8 8 7 7 7 7 7 7 8 8 9 8 8 8 8 8 8 8 8 7 8 8 8 7 6 6 6 7 7 7 7 7 8 8 8 9 10 11 12 12 12 13 13 14 14 14 14 14 15 15 15 15 15 15 15 15 16 16
20 19 20 21 21 20 19 19 20 21 20 20 20 20 19 18 17 15 15 14 13 13 12 11 11 10 10 10 10 9 9 8 8 8 8 9 9 10 10 10 10 10 10 10 10 10 9 9 10 10 9 8 8 8 8 8 8 9 9 9 9 10 10 11 11 12 13 14 14 14 15 15 15 15 15 16 16 16 16 16 16 16 16 16 16
19 19 20 21 21 21 21 20 20 21 21 21 22 21 20 20 19 17 16 15 15 14 13 12 12 11 11 11 11 11 11 10 10 10 11 11 11 11 11 11 12 12 12 12 12 12 12 11 12 11 11 11 10 10 10 10 10 10 10 10 10 11 12 12 13 13 14 15 15 16 16 16 16 17 17 17 17 17 17 17 17 17 17 17 17
17 18 19 20 20 21 22 21 20 21 21 21 22 21 21 20 20 19 18 17 16 16 15 14 14 13 13 13 13 13 12 12 12 13 13 13 13 13 14 14 14 13 13 13 14 14 14 14 14 14 13 13 13 12 12 12 12 12 12 12 12 13 14 14 14 15 16 16 17 17 17 17 17 18 18 18 19 18 18 18 18 18 18 18 18
15 17 18 19 19 20 21 21 21 21 21 21 22 22 22 22 21 19 19 18 18 17 17 16 16 16 15 15 15 15 15 15 16 16 16 17 17 17 16 17 17 16 16 15 15 15 15 15 15 15 15 15 15 14 14 13 14 14 14 14 15 15 16 16 16 17 17 18 19 18 18 18 18 18 19 19 20 20 20 20 20 20 20 20 20
15 16 18 18 18 18 19 20 20 20 19 20 22 22 23 22 21 19 19 19 19 18 18 18 18 18 18 18 17 17 17 18 19 19 20 20 21 21 20 19 19 19 18 18 17 17 17 17 17 17 17 16 16 16 16 16 16 16 16 16 17 17 18 18 18 19 19 20 20 20 20 20 20 20 20 20 20 21 21 22 22 22 22 22 22
15 16 17 18 18 18 18 18 18 18 18 19 20 21 22 21 20 19 19 20 19 18 18 19 19 19 19 20 20 20 20 20 20 21 21 21 22 23 22 21 21 21 20 20 19 19 19 19 19 18 18 18 18 18 18 18 18 17 17 18 18 19 19 20 20 20 20 20 20 21 21 21 21 21 21 21 21 21 22 23 23 24 24 24 25
15 14 15 16 17 17 17 17 17 17 18 18 18 19 21 21 21 20 19 20 19 18 18 18 18 19 20 21 21 21 21 22 22 22 22 21 20 21 22 23 23 22 22 21 21 21 21 20 20 20 20 20 20 20 19 19 19 19 19 20 20 20 20 21 21 21 21 21 21 21 22 23 23 23 23 23 23 23 23 24 24 25 26 26 26
16 15 15 15 15 15 16 17 17 17 18 18 18 18 19 20 21 20 19 19 19 20 20 20 20 21 21 21 22 22 23 23 24 23 23 21 21 21 22 23 25 25 25 25 24 23 23 23 22 22 22 22 22 22 22 22 22 22 22 22 22 22 22 22 22 22 22 22 22 23 23 24 24 25 25 25 25 25 25 25 26 26 27 28 28
19 19 19 19 18 18 18 19 19 18 19 20 20 20 20 20 21 21 20 20 21 21 22 22 22 23 23 23 24 24 25 25 25 24 24 23 23 23 23 24 26 27 28 28 28 26 25 25 24 24 24 24 25 25 24 24 24 24 24 24 24 24 24 24 24 24 24 24 24 24 25 26 26 26 26 27 27 27 27 27 28 28 28 29 29
20 20 20 20 21 21 21 21 20 20 20 21 21 21 21 20 21 21 21 22 22 22 21 22 23 23 24 24 25 25 25 25 25 25 25 25 25 25 25 26 27 28 29 30 30 29 28 27 27 27 27 27 27 27 26 26 26 26 27 27 27 27 26 26 27 26 26 26 26 26 27 28 28 28 28 28 28 29 29 29 29 29 29 29 29
20 20 20 21 22 22 22 22 21 21 21 21 21 21 21 21 21 22 22 22 22 22 22 23 23 24 24 24 24 24 25 25 25 26 27 27 27 27 28 28 29 30 30 30 30 30 29 29 29 29 29 28 29 29 28 28 28 28 29 29 29 29 29 29 28 28 28 29 29 29 29 30 30 31 31 31 30 31 31 31 31 31 31 31 31
19 19 20 20 20 20 20 20 20 20 20 20 21 21 22 22 22 23 23 23 23 24 24 25 25 25 25 25 26 26 26 27 28 28 29 29 29 30 30 30 31 32 32 32 31 31 31 31 30 30 29 29 29 30 30 30 31 30 30 31 31 31 31 31 31 30 31 31 32 32 32 32 33 32 32 33 33 33 33 33 34 34 33 34 34
19 19 19 19 19 19 19 20 20 20 20 20 20 21 21 22 22 23 23 23 24 24 25 26 26 26 26 27 27 27 28 29 29 30 30 31 31 31 31 31 32 32 33 33 33 33 33 32 32 31 31 30 31 31 31 31 31 31 32 32 33 33 33 32 32 32 33 33 34 34 34 35 35 35 34 34 35 35 35 36 36 36 37 37 37
20 19 19 19 19 19 19 20 20 21 21 21 21 21 22 23 23 24 24 24 25 25 25 26 26 26 26 26 27 27 28 29 29 29 30 30 31 31 31 31 31 32 32 33 33 33 32 32 31 31 31 32 32 32 32 32 32 33 33 34 34 34 33 33 33 34 34 35 36 36 36 36 37 37 36 36 37 37 37 38 38 39 39 39 39
23 22 21 21 21 21 21 21 21 22 22 22 22 23 23 24 24 25 25 26 26 27 27 27 27 27 27 27 27 27 28 28 28 28 28 28 29 30 30 30 30 31 31 32 32 32 32 32 32 32 32 33 33 34 34 34 34 35 35 35 35 34 34 34 34 35 36 36 37 37 38 38 38 39 39 39 39 40 40 40 40 40 41 41 41
26 26 25 25 25 24 24 23 23 23 23 24 24 24 24 25 25 26 26 27 27 28 28 28 28 28 28 28 28 28 28 28 27 27 27 27 27 28 28 28 28 29 30 31 31 31 32 32 33 32 33 33 34 34 34 35 35 36 36 36 35 35 35 35 36 36 36 37 37 38 39 39 40 41 41 41 42 42 42 42 42 42 42 42 42
27 27 28 28 28 27 26 26 26 26 25 25 25 25 26 26 26 27 27 27 28 28 28 28 28 28 28 28 28 28 28 28 28 27 26 26 26 27 27 27 27 28 28 29 30 30 31 31 32 32 33 34 34 34 34 35 36 36 36 36 35 35 36 36 36 37 38 38 39 40 41 41 42 42 43 43 43 43 43 42 42 42 42 42 42
26 27 27 28 29 29 29 28 27 27 27 26 27 27 27 28 28 28 28 28 29 29 29 29 29 29 29 29 29 29 29 29 28 28 27 27 27 27 28 28 28 28 29 30 30 31 31 32 32 32 33 34 34 34 35 35 36 36 36 36 36 37 37 37 37 38 39 39 40 41 42 42 43 43 42 42 42 42 41 41 41 42 42 42 42
27 27 27 27 28 29 29 29 28 27 27 27 27 28 29 29 29 29 29 29 30 30 30 30 30 30 30 30 30 30 30 30 29 29 28 28 28 28 28 29 29 29 30 30 31 32 32 33 33 33 33 34 34 34 34 35 35 36 36 36 37 38 38 38 38 39 39 40 40 41 41 41 41 41 41 41 41 41 41 41 41 41 42 42 42
30 29 29 29 29 29 29 29 29 28 28 28 29 30 30 31 31 31 31 31 31 31 31 30 30 31 30 30 30 30 30 30 30 29 29 28 28 28 28 28 28 29 29 30 31 31 32 32 33 33 33 33 34 34 34 35 35 36 36 37 37 38 38 38 38 39 40 40 41 41 41 41 40 40 40 40 40 41 41 41 41 41 41 42 42
32 32 31 31 31 31 31 31 30 30 30 30 30 31 32 32 32 32 32 32 32 32 31 31 31 31 31 31 30 30 30 29 29 28 28 28 28 28 28 28 28 28 29 29 30 31 31 32 32 32 32 33 33 34 34 35 35 36 37 37 37 38 38 38 39 40 40 40 40 40 40 40 40 40 40 40 40 40 41 41 41 41 42 42 42
35 35 35 34 34 33 33 33 33 33 32 32 32 32 32 32 33 33 32 32 32 32 32 32 32 32 31 31 30 30 30 29 29 28 28 28 28 28 28 28 28 28 29 29 30 30 31 31 32 32 33 33 33 34 35 35 36 36 36 37 37 38 38 38 39 39 39 39 40 40 40 40 40 40 40 40 40 40 40 41 41 42 42 42 43
38 38 38 38 37 37 36 36 36 36 35 35 34 34 34 33 33 33 33 33 33 32 32 32 32 31 31 30 30 30 30 30 30 29 29 29 29 28 28 28 28 29 29 30 30 30 31 31 32 32 33 33 34 34 35 35 35 35 36 36 36 36 37 37 37 37 38 38 38 39 39 39 39 39 39 39 40 40 41 41 42 42 42 43 43
40 40 40 39 39 39 39 38 38 38 37 37 36 36 35 35 34 34 34 33 33 32 32 32 32 31 31 30 30 30 30 30 30 30 30 29 29 28 28 28 28 28 29 29 29 30 30 30 31 32 32 33 33 33 33 33 33 33 34 34 34 34 34 35 35 36 36 37 37 37 38 38 38 38 39 39 40 40 41 41 41 42 42 43 43
42 42 42 42 41 41 41 40 39 39 38 37 36 36 36 35 35 34 34 34 34 34 33 32 31 31 31 30 30 30 30 30 30 30 30 29 29 28 28 28 28 28 28 28 28 28 28 29 29 30 30 30 30 29 30 30 30 31 31 31 31 32 32 33 34 34 35 36 36 37 37 38 38 39 40 40 40 40 41 41 41 42 42 42 43
42 42 42 42 42 42 41 41 40 39 38 37 37 37 36 36 36 35 35 34 34 33 32 31 31 30 30 30 30 30 29 29 30 30 30 29 29 28 28 28 27 27 27 27 27 27 27 27 26 26 26 26 26 26 27 28 28 28 29 29 30 31 31 32 33 34 34 35 37 38 38 39 40 40 41 41 41 41 41 42 42 42 42 43 43
41 41 41 41 41 41 41 40 40 39 39 38 38 38 37 36 36 36 35 34 33 32 31 31 31 30 30 30 29 29 29 29 30 30 29 28 28 27 27 27 27 26 26 26 25 25 25 24 23 23 23 24 24 25 26 26 27 27 28 29 29 30 31 32 32 34 35 36 38 39 40 40 41 42 42 42 42 42 42 42 43 43 43 43 43
42 41 41 40 40 40 40 40 40 39 39 38 38 37 36 36 35 35 34 33 33 32 31 31 31 30 30 30 30 29 29 29 29 28 28 27 26 26 26 25 25 24 24 23 23 22 22 21 22 22 23 23 24 24 25 25 26 27 27 28 29 29 31 32 33 34 36 37 39 40 41 41 42 42 42 42 42 42 42 42 42 42 42 42 42
42 42 41 40 40 40 40 40 39 38 38 37 37 36 35 34 33 32 32 32 31 31 31 31 31 30 30 30 29 29 29 28 27 26 26 25 25 24 24 23 23 22 21 21 20 20 20 20 21 22 22 22 23 23 24 24 25 26 26 27 29 30 31 33 34 36 37 39 39 40 40 41 41 41 40 40 40 40 40 40 40 40 39 39 40
42 42 42 41 40 39 39 38 38 37 37 36 36 35 34 33 31 31 30 30 30 30 30 30 30 29 29 28 28 27 26 26 25 25 24 24 23 22 21 20 20 19 19 19 19 19 19 20 20 20 20 20 21 21 22 23 24 26 27 28 30 31 33 34 36 37 38 38 38 38 38 38 39 38 38 38 38 38 37 37 36 36 36 36 36
43 42 42 41 41 40 38 37 37 36 36 35 35 34 33 31 30 30 29 29 29 29 29 28 28 28 27 26 26 25 25 24 24 23 22 21 20 19 18 18 18 17 17 18 18 18 18 18 18 18 18 19 20 21 22 23 25 26 27 29 30 32 33 35 36 36 36 36 36 36 36 36 36 36 35 35 34 34 33 32 32 32 31 31 31
44 43 42 41 41 40 39 38 37 36 35 35 34 33 32 31 30 30 29 28 28 27 27 27 26 26 25 25 24 23 23 22 21 20 19 18 17 17 16 16 16 17 17 17 17 16 16 16 16 16 17 18 19 21 22 23 24 26 27 28 30 31 32 33 34 34 34 34 34 34 33 33 32 32 31 30 29 28 28 27 27 27 27 27 27
43 43 43 42 42 41 40 39 38 37 36 35 35 34 33 32 30 29 28 27 26 26 25 24 24 24 23 23 22 21 20 20 18 17 16 16 15 15 16 16 16 16 15 15 14 13 13 14 14 15 16 17 18 19 20 22 23 25 26 28 29 30 31 32 32 32 32 32 31 31 30 29 28 27 26 25 24 24 23 23 23 23 23 23 23
42 42 42 42 41 41 40 39 38 37 36 35 34 33 32 31 29 28 27 26 25 24 24 23 23 22 21 21 20 19 18 17 16 15 15 15 15 16 16 15 15 14 13 12 11 11 12 12 13 14 15 15 16 18 20 21 23 24 26 27 29 30 30 30 30 30 29 28 27 26 25 24 23 22 21 20 20 20 20 20 20 20 21 21 22
40 40 40 40 40 39 39 38 37 36 35 34 33 32 31 29 28 27 26 25 24 23 23 22 21 20 19 18 17 17 16 15 15 15 15 15 15 15 14 13 12 11 10 10 10 10 11 11 11 12 13 14 15 17 19 21 22 24 25 27 28 29 29 28 27 26 25 24 23 22 21 20 19 18 18 17 18 18 19 19 20 20 21 21 22
35 36 37 38 38 38 38 37 36 35 34 33 31 30 29 28 27 26 25 24 23 22 22 21 20 18 18 17 16 15 15 14 15 15 14 13 13 12 11 10 10 9 8 8 9 9 9 9 9 10 12 13 15 17 19 20 22 24 25 27 28 27 27 25 24 23 22 21 20 19 18 17 16 16 16 17 18 18 19 19 20 21 22 22 22
30 31 32 33 34 35 35 35 35 34 33 32 30 29 28 27 26 25 24 23 22 21 20 20 19 18 17 16 15 14 14 14 14 13 12 11 11 10 10 9 8 8 7 7 7 6 6 7 8 10 11 12 14 16 18 20 22 24 26 27 27 26 25 23 22 21 19 18 18 17 16 15 15 15 16 17 17 18 19 20 21 21 22 22 21
24 25 27 28 29 30 30 31 32 32 31 30 29 28 27 26 24 23 22 22 21 20 19 19 18 17 16 16 15 14 14 13 13 12 11 10 10 10 9 8 7 7 6 6 5 5 5 6 7 9 10 12 14 16 19 21 23 25 27 27 26 24 23 21 20 19 18 16 16 15 15 15 15 16 16 17 17 18 19 20 20 20 20 20 19
19 21 22 24 25 26 26 27 27 28 28 28 27 26 25 24 23 22 21 20 20 19 18 18 17 16 15 15 14 14 14 13 12 11 11 11 10 9 8 8 7 6 6 5 4 4 4 5 7 8 10 12 14 17 19 21 24 25 27 26 24 22 21 20 19 17 16 15 15 14 14 15 15 16 16 16 17 18 18 18 18 18 18 18 18
13 15 18 20 21 22 22 23 23 24 24 24 25 24 23 23 22 21 21 20 19 19 18 16 15 15 15 14 14 13 13 12 12 12 11 10 9 9 8 8 7 6 5 4 4 3 4 5 7 8 10 13 15 17 20 22 24 25 26 25 23 21 20 19 18 16 15 14 14 14 14 14 15 16 16 16 17 17 17 17 17 17 16 16 16
6 9 13 15 17 17 18 19 20 20 21 21 22 22 21 21 21 21 20 19 19 18 16 15 15 15 14 14 13 12 12 12 12 12 11 11 10 9 8 8 7 6 5 4 3 3 4 5 7 9 11 13 15 18 20 22 24 25 26 25 23 21 20 18 17 16 14 14 14 13 14 14 15 15 15 16 16 17 17 16 16 15 15 14 14
10 11 11 13 14 15 16 16 18 18 18 19 19 19 19 20 20 20 19 19 18 17 16 16 15 14 13 12 12 12 12 13 13 12 12 11 10 9 8 8 7 6 5 4 3 3 4 5 7 9 11 13 16 18 20 22 24 25 25 25 23 21 20 18 18 16 15 14 13 13 14 14 14 15 15 16 16 16 16 15 15 14 13 13 13
14 15 15 15 16 16 16 17 17 18 18 18 18 19 19 20 19 19 18 18 17 16 16 15 14 13 12 12 13 13 13 14 14 13 12 11 10 9 8 7 6 5 4 4 4 4 4 5 7 9 11 14 16 18 20 22 24 25 24 24 24 22 20 19 18 17 15 14 13 13 14 14 14 14 15 15 15 16 16 15 14 13 13 12 11
15 15 16 16 17 17 17 17 17 18 18 19 19 19 19 19 19 18 17 17 16 15 15 14 13 13 13 13 13 14 14 14 13 12 11 10 10 9 8 6 5 5 4 4 4 4 5 6 7 9 11 14 16 18 20 22 24 25 25 24 24 23 21 20 18 16 15 14 14 14 14 14 14 14 15 15 15 15 14 13 13 13 12 12 11
17 17 17 17 17 17 18 18 18 19 19 19 18 18 18 18 17 17 16 15 15 15 14 14 14 13 13 14 14 14 14 13 12 11 10 10 9 8 7 5 5 5 5 4 4 4 5 6 8 9 11 14 16 18 20 22 24 25 25 25 24 23 22 21 19 17 15 14 14 14 14 13 13 14 14 14 14 13 13 12 12 12 12 11 10
20 20 20 19 19 18 18 19 19 19 18 17 17 16 16 16 16 16 15 14 14 14 14 14 14 13 14 14 14 13 13 11 10 10 10 9 8 7 6 5 5 5 4 4 4 4 5 6 8 10 12 14 15 17 19 21 23 24 25 25 24 23 23 22 20 18 16 15 15 14 13 12 13 13 14 13 13 12 11 11 11 11 11 11 10
20 19 19 19 18 18 18 18 18 17 17 16 15 15 15 15 15 15 14 13 14 14 14 13 13 13 14 13 13 12 11 10 10 10 9 9 8 6 5 5 4 4 4 4 4 5 5 7 9 10 12 14 15 17 19 21 22 23 24 25 24 24 24 23 21 19 18 17 16 15 13 12 12 13 13 13 12 11 10 10 11 10 10 10 9
18 18 17 17 17 17 17 17 17 16 15 15 14 14 14 14 14 13 13 13 13 13 13 13 13 13 13 12 11 10 10 10 10 9 9 8 7 6 5 4 4 4 4 5 5 5 6 7 9 11 12 13 15 17 18 20 21 22 23 24 24 25 25 24 23 21 19 18 17 15 13 12 12 12 12 12 11 10 9 9 10 9 9 9 9
15 15 15 15 15 15 15 14 14 14 13 13 12 12 13 13 13 13 13 13 13 13 13 13 12 12 11 11 10 9 9 9 9 9 8 7 6 6 5 4 4 5 5 5 5 6 7 8 9 10 11 13 14 16 18 19 20 21 22 23 24 24 25 25 24 22 21 19 18 16 14 13 13 12 12 11 11 10 9 9 9 8 8 8 8
12 12 12 12 12 12 12 12 11 11 11 11 11 12 12 12 12 12 12 12 12 13 12 12 11 10 10 9 9 8 8 9 9 9 8 7 7 6 6 5 5 5 6 6 6 7 8 8 9 10 11 12 14 16 17 18 19 21 21 22 23 24 24 24 24 23 22 20 19 17 15 14 13 12 12 11 11 10 9 9 8 8 7 7 7
Wind_Direction
238 238 235 236 240 236 234 239 239 235 234 235 236 236 235 235 237 239 239 239 239 238 242 245 246 248 251 254 257 257 258 261 266 269 269 268 268 267 268 268 267 266 265 265 266 266 266 266 268 271 276 282 286 288 290 290 289 289 292 292 290 292 293 292 291 291 294 294 292 292 292 290 289 287 286 284 283 283 282 281 280 278 277 277 276
240 239 234 235 238 236 236 241 242 240 236 235 236 237 236 235 235 237 237 238 240 240 244 248 250 253 255 258 260 260 261 264 268 272 271 270 270 269 269 268 268 267 266 266 267 268 269 269 269 271 274 278 282 285 287 288 288 289 291 290 289 290 291 292 291 291 293 295 294 293 293 292 290 289 288 286 284 283 281 281 280 279 279 279 278
241 236 234 237 239 238 239 242 244 242 241 239 237 236 236 235 234 235 236 237 239 242 246 249 251 253 255 258 259 260 262 265 269 271 270 268 267 267 269 269 269 268 268 268 268 268 268 268 269 270 271 273 277 280 283 284 286 288 289 290 290 291 291 292 292 292 292 294 294 293 293 292 290 288 287 286 285 284 281 280 280 280 280 280 279
241 235 236 241 240 238 239 241 242 244 245 243 238 235 236 235 234 236 236 237 239 242 246 249 251 253 256 259 261 262 263 265 270 272 270 267 266 266 267 267 268 267 266 268 269 269 268 267 267 268 269 270 274 277 279 281 282 284 286 287 289 290 291 291 292 292 292 294 294 293 292 290 288 287 286 285 284 283 281 280 280 279 279 280 280
242 239 240 241 239 238 239 241 244 245 247 246 242 239 237 235 237 239 240 240 241 242 245 247 250 253 256 260 262 264 266 267 270 273 273 269 266 266 267 267 267 266 264 266 268 268 269 267 266 266 267 269 272 276 278 279 280 281 283 285 287 289 290 290 291 291 291 292 294 294 293 291 288 286 286 285 284 282 281 279 278 278 279 279 279
248 247 244 241 240 240 242 245 246 245 246 246 245 242 238 236 237 240 243 244 242 242 245 248 250 253 256 260 262 265 269 270 272 275 277 273 267 264 264 265 265 264 264 264 265 266 267 267 267 266 266 268 270 273 275 276 278 279 281 284 286 287 288 289 290 290 290 290 291 293 294 292 290 288 287 286 284 283 282 280 278 278 279 279 278
251 249 243 241 243 243 243 244 245 244 245 244 243 241 236 235 238 242 247 247 243 245 249 250 251 253 256 261 264 267 271 273 275 277 279 276 269 262 261 262 262 262 263 264 264 264 264 266 266 265 265 266 268 270 272 273 275 276 278 281 284 286 288 289 289 290 290 289 289 291 292 292 292 290 289 287 285 284 283 283 281 279 278 277 277
249 248 246 243 244 243 242 242 244 246 245 243 242 239 235 237 243 248 251 246 243 249 253 253 255 258 261 264 266 268 270 272 275 276 275 275 270 263 261 260 259 260 263 264 264 264 263 264 265 265 265 266 268 269 270 271 273 275 277 279 282 285 287 288 289 290 290 290 289 290 291 292 292 291 290 289 287 285 284 283 282 281 279 278 277
251 253 251 246 244 245 246 246 246 248 246 243 240 238 239 242 246 249 250 247 249 254 255 256 260 263 265 267 268 269 271 272 274 273 271 271 269 266 264 260 258 259 261 263 265 265 264 264 265 265 266 267 269 270 271 272 274 275 277 280 282 283 285 286 288 289 289 290 290 290 291 291 292 292 291 289 288 286 285 284 283 281 280 279 277
255 255 252 248 249 252 251 250 248 247 247 243 239 240 244 246 246 247 249 252 256 259 258 259 262 264 266 269 270 271 272 273 272 270 270 270 270 268 266 263 261 260 261 263 264 264 264 265 265 265 265 267 268 270 271 273 275 276 277 279 281 282 283 284 285 286 287 289 290 291 291 290 291 291 290 289 287 286 285 285 284 283 282 281 279
255 255 251 249 251 252 252 250 248 247 247 245 243 243 245 245 245 248 251 255 258 259 259 261 264 266 269 271 272 273 273 273 272 271 271 271 270 269 268 266 264 263 263 263 263 264 264 265 265 264 265 267 268 269 270 273 275 275 276 277 280 281 282 282 283 284 285 286 287 289 289 289 289 290 289 288 287 286 285 285 284 284 283 282 280
255 255 253 252 252 252 251 249 247 247 247 246 245 245 246 247 250 252 254 256 258 260 263 265 267 270 272 273 273 273 273 274 274 274 273 271 270 269 269 269 268 267 266 265 264 264 265 265 265 265 266 267 269 269 270 272 274 276 277 278 279 280 280 281 282 282 283 284 285 287 287 287 288 288 288 287 286 286 285 284 284 283 283 281 279
256 255 254 253 251 250 248 245 243 244 245 246 247 248 250 251 254 255 257 258 260 262 265 267 269 271 272 273 273 273 273 274 274 274 273 272 271 270 270 270 269 267 266 265 264 264 264 264 264 264 265 267 269 270 270 272 275 277 277 278 278 278 279 279 280 281 282 283 284 285 286 287 287 287 287 286 286 286 286 285 285 283 282 281 280
256 255 253 251 250 248 245 243 242 243 245 248 250 251 252 253 255 257 259 260 261 263 265 267 269 270 271 272 273 273 274 274 274 274 274 274 273 272 272 271 269 268 266 264 264 264 264 263 263 263 264 267 268 269 271 272 274 276 276 277 278 278 278 279 280 280 281 282 283 285 286 286 286 286 286 285 284 284 285 285 285 284 282 281 280
255 253 252 251 251 248 245 245 245 246 248 250 252 253 254 256 257 258 259 260 262 263 265 267 269 270 271 272 273 274 275 275 276 276 276 276 275 274 273 272 271 269 267 265 265 264 263 262 263 264 265 268 269 269 270 272 274 275 276 277 278 278 278 279 280 281 282 283 283 284 285 285 285 285 285 284 284 283 283 283 283 282 281 280 280
254 253 253 251 250 250 249 248 248 249 251 253 255 256 257 257 259 260 261 262 264 265 267 269 270 271 271 272 273 274 275 276 277 277 277 277 276 275 274 273 272 271 269 266 265 264 263 262 264 265 267 268 269 269 270 272 273 274 275 276 277 278 277 279 280 281 282 283 283 283 284 284 284 284 284 284 284 283 283 283 282 281 280 279 279
254 253 253 252 251 251 251 250 250 252 254 256 257 258 258 258 260 262 263 265 267 268 270 271 271 272 272 273 273 273 274 276 276 277 277 277 276 275 274 273 272 271 269 267 265 264 263 264 264 266 267 268 269 270 271 272 273 274 274 275 276 276 277 278 279 280 281 281 281 282 282 283 283 284 284 284 284 284 283 282 282 280 279 278 277
255 254 254 253 252 251 251 251 253 254 256 257 258 258 259 260 262 264 265 267 268 269 270 271 272 273 273 273 273 273 274 275 275 276 277 277 276 275 274 273 272 271 269 267 265 264 264 265 265 266 267 268 269 271 272 272 273 273 274 274 275 276 276 277 278 279 280 280 281 281 282 282 283 283 284 284 284 283 282 281 281 280 278 277 277
257 256 256 255 253 252 251 252 253 255 256 257 258 259 261 263 264 266 267 268 269 269 271 271 272 273 273 272 273 273 273 274 274 274 275 276 276 275 274 272 272 271 270 269 268 266 266 267 268 267 267 268 269 271 272 272 273 273 273 274 275 276 276 277 278 279 280 281 281 281 282 282 283 283 283 283 283 282 281 280 280 279 278 277 276
257 257 257 256 254 253 252 253 253 254 255 256 258 259 261 263 265 267 269 270 270 271 272 272 272 272 272 272 272 272 273 273 274 274 275 275 276 276 275 273 272 272 271 270 270 269 269 270 270 269 269 269 270 271 272 272 272 273 273 274 275 276 277 278 279 280 281 281 282 282 282 282 283 283 282 282 281 281 280 279 279 278 277 276 275
256 256 255 254 254 253 253 253 254 256 257 258 259 260 262 263 264 266 269 270 271 272 272 272 272 272 272 272 272 272 273 273 273 273 274 274 275 275 275 274 273 272 272 272 271 271 271 271 271 270 270 270 271 272 273 273 273 274 275 275 276 277 278 279 280 281 281 282 282 282 283 283 283 282 282 281 280 280 280 279 279 278 277 276 275
255 255 254 254 255 255 256 256 258 259 260 261 261 262 264 264 264 265 267 269 269 270 271 271 271 272 272 272 272 271 271 272 272 272 272 273 274 274 274 274 273 273 273 272 272 271 271 271 271 270 270 271 272 273 273 274 275 276 276 277 278 279 280 281 281 282 282 282 283 283 284 284 283 283 282 281 281 280 280 279 278 278 277 276 275
255 255 254 255 256 257 257 258 259 261 262 263 263 264 266 266 266 266 266 267 268 269 269 270 271 270 271 271 270 270 270 271 271 272 272 273 274 274 274 274 273 273 273 273 273 272 271 271 271 271 271 272 273 274 274 276 277 277 278 278 279 280 280 281 281 282 283 283 283 284 284 284 284 283 282 282 282 281 280 280 279 278 277 276 275
256 256 255 255 255 256 257 258 259 261 262 263 264 264 266 267 268 268 267 267 267 268 268 269 269 269 268 268 268 269 270 271 272 272 273 274 274 274 274 274 273 273 274 274 273 272 272 272 272 272 273 274 275 275 276 277 277 278 278 279 280 280 280 281 282 282 282 283 283 284 284 284 284 284 283 283 282 281 281 280 279 278 277 276 275
256 256 256 256 255 256 257 258 258 259 260 261 262 263 264 266 267 268 268 267 267 267 267 267 266 266 266 266 267 268 269 271 272 273 273 273 273 273 273 273 273 273 273 273 273 273 273 273 273 274 275 276 276 277 277 278 278 279 279 280 280 281 281 281 281 282 282 283 284 284 285 285 285 284 284 283 283 282 281 281 280 279 278 277 276
255 255 255 256 256 256 257 257 258 258 259 260 261 262 263 264 266 267 267 267 266 266 266 265 264 264 264 265 266 267 269 270 271 271 272 272 272 272 272 272 272 272 272 273 273 273 274 275 275 276 276 276 277 278 279 279 280 280 280 280 281 281 282 282 282 283 284 284 285 285 285 286 285 285 285 284 283 283 282 282 281 280 279 278 277
255 255 255 255 255 256 256 256 257 257 259 260 261 262 262 263 264 265 266 265 265 265 264 263 262 262 263 264 265 266 268 269 269 269 270 270 271 271 270 270 271 271 272 273 273 273 274 275 276 277 277 278 279 280 280 281 281 281 282 282 283 283 284 284 284 285 285 286 286 287 287 287 286 286 285 284 284 283 283 282 281 280 280 279 278
256 256 255 255 255 255 256 256 256 257 258 259 260 261 262 262 263 264 264 264 264 263 262 262 261 261 262 263 265 266 267 268 268 268 268 269 269 269 269 270 270 271 271 271 271 272 273 275 277 278 280 281 282 282 283 283 284 284 285 285 286 286 286 286 287 287 288 288 288 288 288 288 288 287 286 285 284 284 283 282 281 281 280 279 278
256 256 256 256 255 255 256 256 257 257 257 258 259 260 260 260 261 262 263 263 262 261 260 260 261 262 262 263 263 265 266 267 267 267 267 267 267 267 268 268 269 269 269 269 270 271 273 275 278 280 281 282 283 284 285 286 286 287 288 288 289 289 289 289 290 290 290 290 290 290 290 289 289 288 287 286 284 284 283 282 282 281 280 279 278
255 255 255 256 256 256 256 257 256 256 256 257 257 258 258 259 260 260 260 261 260 260 260 261 261 261 261 262 263 265 266 266 266 266 266 265 265 265 266 266 266 266 267 268 270 272 274 277 279 281 282 284 285 286 288 289 290 291 291 291 292 292 292 292 292 292 292 292 292 291 291 290 290 289 288 286 285 285 284 283 282 281 280 279 278
253 253 253 254 254 255 255 255 254 255 255 256 255 255 256 257 258 259 259 259 259 259 260 260 260 259 259 260 263 264 264 263 263 264 263 262 262 263 263 264 265 265 267 269 271 273 275 278 280 281 283 285 287 290 292 293 294 294 294 294 294 294 294 295 295 294 294 294 293 293 292 291 291 290 289 288 287 286 285 284 283 281 281 280 279
252 252 252 251 251 251 252 252 252 253 254 254 253 253 253 254 256 258 259 259 259 258 257 257 256 256 257 258 260 261 261 261 261 261 260 259 259 259 260 261 263 265 268 270 272 273 275 277 280 282 285 289 292 294 295 296 296 297 297 297 297 297 297 297 297 296 296 296 295 295 294 293 292 291 290 289 288 287 286 284 283 282 281 281 280
252 251 250 250 250 250 250 250 250 251 251 250 250 250 251 252 253 255 256 257 257 257 256 255 254 254 255 256 257 258 258 258 257 256 256 255 255 255 256 259 262 265 268 269 270 272 275 278 282 286 291 294 296 297 298 299 300 300 300 300 300 300 300 300 300 300 300 299 298 297 296 295 294 293 292 291 290 289 287 286 285 284 283 282 282
252 251 250 249 249 249 249 249 249 249 249 248 248 248 249 250 250 250 251 252 253 254 254 253 252 251 252 253 253 253 254 253 251 250 250 251 252 254 257 259 262 264 265 265 267 272 277 281 287 292 295 297 299 301 302 304 304 305 305 305 305 305 305 304 304 304 303 301 300 299 298 297 296 295 294 293 292 291 290 289 288 286 285 284 284
252 250 249 248 247 247 247 247 247 247 247 247 246 246 247 247 246 246 247 247 248 249 249 249 249 248 248 248 247 247 247 246 244 245 247 250 253 257 258 258 259 260 261 264 268 274 280 285 290 294 298 302 305 307 309 310 310 311 311 311 310 309 308 308 307 306 305 304 303 302 301 300 299 298 297 296 295 293 292 291 290 289 288 287 286
250 249 247 246 245 244 244 244 244 244 244 244 244 244 243 243 243 243 243 243 243 244 244 244 243 242 241 240 240 240 239 238 240 243 247 251 254 254 252 249 249 252 257 264 271 277 282 287 293 299 304 308 311 313 315 317 317 317 316 315 314 313 312 311 310 309 309 308 307 306 305 304 303 302 301 299 298 296 294 294 293 292 291 290 288
248 246 245 244 243 241 241 241 241 241 241 240 240 240 239 239 239 239 239 239 239 238 238 236 234 232 231 232 233 233 233 235 239 242 245 247 246 243 239 238 241 248 256 264 270 276 282 290 299 306 310 313 317 321 323 323 323 321 321 321 320 318 317 315 314 313 313 312 311 310 309 309 307 306 305 304 302 300 299 298 297 295 293 291 288
246 244 242 240 239 239 238 237 237 237 237 236 236 235 235 235 235 235 234 233 232 231 230 228 225 223 223 224 227 230 232 234 237 238 238 236 232 228 229 234 240 247 253 258 264 272 284 296 305 311 316 322 326 329 329 328 327 327 327 326 324 322 320 318 317 317 316 315 315 314 313 313 312 310 309 308 307 306 304 302 300 299 296 293 289
243 240 238 235 234 234 234 233 232 232 232 231 230 230 229 229 228 228 227 226 225 223 221 219 217 218 218 219 223 227 229 228 228 228 227 225 222 223 227 231 235 239 243 248 255 268 285 300 311 320 328 332 334 334 334 334 333 332 332 330 328 325 323 322 320 320 319 318 317 317 317 316 315 314 313 312 310 309 308 306 304 302 300 296 292
239 236 232 229 227 227 227 227 226 225 225 224 224 222 221 220 220 219 218 217 215 213 210 209 211 213 215 216 218 221 221 220 220 221 220 218 216 217 219 219 221 225 230 236 248 267 289 308 322 332 337 338 338 339 340 340 338 337 336 335 332 329 327 325 323 322 322 320 320 319 319 319 319 319 317 315 315 315 314 312 311 309 306 301 296
232 227 223 219 217 217 218 218 216 216 215 214 213 212 211 211 211 210 208 206 204 202 202 204 207 208 209 210 211 213 213 214 214 213 210 205 203 203 205 206 210 215 219 226 244 271 298 320 333 339 341 341 342 344 345 344 343 342 341 340 338 334 331 329 327 326 324 322 321 320 320 322 324 324 322 321 321 321 321 319 318 316 313 309 304
179 189 194 197 199 201 202 202 201 201 201 200 200 201 202 201 200 199 197 196 195 196 197 199 200 201 203 205 206 206 206 206 203 199 195 192 193 195 197 201 207 210 212 223 247 278 306 327 337 340 342 344 346 348 348 348 347 346 345 345 343 340 337 334 332 331 328 325 323 322 323 325 327 327 326 325 326 326 326 326 325 324 322 319 316
111 127 144 157 167 173 176 178 180 182 184 186 187 188 188 187 186 186 187 187 189 191 192 192 193 196 200 201 200 198 196 193 190 188 187 188 190 192 194 199 206 210 216 234 261 284 307 327 336 338 341 345 348 348 349 350 350 350 349 349 347 345 342 340 338 337 334 329 326 325 326 327 328 328 329 329 329 330 331 332 332 331 330 328 326
102 108 115 125 134 142 147 152 157 161 164 166 168 170 171 172 173 176 179 182 185 187 187 187 189 192 194 193 191 188 186 185 184 185 186 188 190 191 193 200 210 217 228 252 275 293 309 324 333 336 339 344 347 349 350 352 352 353 353 353 352 350 348 345 343 342 341 337 333 331 330 328 328 329 330 332 333 335 336 336 336 337 336 334 333
103 107 112 117 123 128 133 138 143 147 149 151 154 157 160 163 167 171 174 177 179 180 181 183 186 187 186 185 183 181 181 181 182 184 187 190 192 193 196 206 219 229 242 263 282 299 313 323 329 334 339 344 347 349 351 353 354 355 356 356 355 354 353 350 347 345 344 342 339 335 332 331 330 330 331 333 335 338 340 341 340 340 340 340 339
100 105 110 114 119 123 128 132 136 139 142 144 148 152 156 160 163 166 167 169 171 174 177 180 181 180 180 179 179 178 178 180 182 187 190 192 193 195 203 217 231 239 251 268 285 302 315 323 329 334 339 344 347 350 352 354 355 357 358 358 357 356 355 353 351 348 345 343 341 338 336 335 334 333 333 334 338 341 343 343 342 343 345 346 345
97 101 106 110 114 118 122 127 131 134 137 140 143 147 151 154 157 159 161 164 169 172 174 176 176 176 177 177 176 176 178 183 187 191 192 192 195 201 212 226 238 248 258 271 287 302 314 322 328 334 338 343 347 350 352 354 356 358 359 360 360 359 358 357 355 353 349 346 344 342 341 340 339 338 337 339 343 346 347 346 347 351 353 353 351
96 99 103 107 111 115 120 123 127 130 133 136 139 142 146 150 154 158 161 165 167 169 169 171 172 173 174 175 175 178 182 187 190 192 193 195 200 208 220 235 247 254 262 274 287 299 310 320 326 332 337 342 347 350 352 354 356 358 360 1 2 1 1 360 359 357 355 351 348 347 346 343 342 342 342 343 347 351 351 351 355 1 2 1 2
96 98 102 106 110 115 120 123 126 129 133 137 139 143 147 152 156 159 161 162 163 164 166 168 168 169 171 174 177 183 188 192 192 193 195 199 205 215 229 245 253 257 266 277 287 297 307 316 323 330 336 342 347 350 351 353 356 358 360 2 2 2 2 2 2 1 359 356 353 352 351 347 345 345 346 347 351 355 356 357 1 5 6 7 12
98 100 103 106 111 116 120 124 127 131 135 138 140 143 146 149 151 154 156 158 160 162 164 166 167 169 173 177 182 188 195 197 197 197 199 204 212 224 237 249 257 263 272 280 287 296 305 313 321 328 334 341 347 350 351 352 355 357 359 1 2 3 3 4 4 4 3 1 358 357 356 353 351 350 349 349 353 357 358 358 360 2 5 10 19
97 100 103 107 112 117 123 127 131 135 138 140 141 142 143 146 148 151 154 157 159 161 163 165 168 173 178 184 189 196 201 202 202 203 208 214 222 233 244 254 261 266 273 280 286 294 303 310 318 325 331 338 344 348 349 351 353 355 357 360 2 3 4 5 6 6 6 5 3 1 360 358 356 355 354 352 353 357 358 357 356 358 2 8 15